Kingman, AZ

10:16 PM MST on April 28, 2017 (GMT -0700)
Kingman

Weather History for KIGM - November, 2012

Change the Weather History Date:

Wednesday, November 28, 2012

  Actual Average Record
Temperature  
Mean Temperature 57 °F 46 °F  
Max Temperature 71 °F 59 °F 78 °F (1999)
Min Temperature 42 °F 34 °F 18 °F (1976)
Degree Days  
Heating Degree Days 8 19  
Month to date heating degree days 301 388  
Since 1 July heating degree days 387 527  
Cooling Degree Days 0 0  
Month to date cooling degree days 0 0  
Year to date cooling degree days 2297 2092  
Growing Degree Days 7 (Base 50)    
Moisture  
Dew Point 24 °F    
Average Humidity 30    
Maximum Humidity 45    
Minimum Humidity 15    
Precipitation  
Precipitation 0.00 in 0.02 in 6.03 in (1919)
Month to date precipitation T 0.61  
Year to date precipitation 6.88 7.61  
Sea Level Pressure  
Sea Level Pressure 30.04 in    
Wind  
Wind Speed 9 mph (South)    
Max Wind Speed 13 mph    
Max Gust Speed 17 mph    
Visibility 10 miles    
Events      
T = Trace of Precipitation, MM = Missing Value Source: NWS Daily Summary

Daily Weather History Graph

Daily Weather History Graph

Search for Another Location

Airport or City:

Trip Planner

Search our weather history database for the weather conditions in past years. The results will help you decide how hot, cold, wet, or windy it might be!

Date:

Astronomy

Nov. 28, 2012 Rise Set
Actual Time 7:23 AM MST 5:23 PM MST
Civil Twilight 6:56 AM MST 5:51 PM MST
Nautical Twilight 6:24 AM MST 6:22 PM MST
Astronomical Twilight 5:54 AM MST 6:53 PM MST
Moon 5:42 PM MST (11/28) 7:24 AM MST (11/28)
Length of Visible Light 10h 55m
Length of Day
10h 00m
Full, 100% of the Moon is Illuminated
Nov 28
Full
Dec 6
Last Quarter
Dec 13
New
Dec 19
First Quarter
Dec 28
Full

Hourly Weather History & Observations

Time (MST) Temp. Windchill Dew Point Humidity Pressure Visibility Wind Dir Wind Speed Gust Speed Precip Events Conditions
12:51 AM 43.0 °F - 21.0 °F 42% 30.07 in 10.0 mi Calm Calm - N/A   Clear
1:51 AM 43.0 °F - 19.9 °F 40% 30.06 in 10.0 mi Calm Calm - N/A   Clear
2:51 AM 42.1 °F - 21.0 °F 43% 30.05 in 10.0 mi Calm Calm - N/A   Clear
3:51 AM 44.1 °F 40.1 °F 21.9 °F 42% 30.05 in 10.0 mi ESE 6.9 mph - N/A   Clear
4:51 AM 44.1 °F - 23.0 °F 43% 30.04 in 10.0 mi Calm Calm - N/A   Clear
5:51 AM 43.0 °F 41.3 °F 23.0 °F 45% 30.06 in 10.0 mi ESE 3.5 mph - N/A   Clear
6:51 AM 46.0 °F 41.9 °F 25.0 °F 44% 30.06 in 10.0 mi East 8.1 mph - N/A   Clear
7:51 AM 50.0 °F - 25.0 °F 38% 30.07 in 10.0 mi WSW 3.5 mph - N/A   Clear
8:51 AM 54.0 °F - 26.1 °F 34% 30.07 in 10.0 mi South 4.6 mph - N/A   Clear
9:51 AM 60.1 °F - 26.1 °F 27% 30.07 in 10.0 mi SW 4.6 mph - N/A   Clear
10:51 AM 66.0 °F - 26.1 °F 22% 30.08 in 10.0 mi WSW 11.5 mph 16.1 mph N/A   Clear
11:51 AM 69.1 °F - 26.1 °F 20% 30.06 in 10.0 mi SW 23.0 mph 27.6 mph N/A   Clear
12:51 PM 70.0 °F - 26.1 °F 19% 30.01 in 10.0 mi SW 19.6 mph 27.6 mph N/A   Clear
1:51 PM 71.1 °F - 24.1 °F 17% 29.98 in 10.0 mi SW 19.6 mph 26.5 mph N/A   Clear
2:51 PM 70.0 °F - 23.0 °F 17% 29.98 in 10.0 mi SW 20.7 mph - N/A   Clear
3:51 PM 68.0 °F - 19.9 °F 16% 29.99 in 10.0 mi SW 18.4 mph - N/A   Clear
4:51 PM 64.9 °F - 23.0 °F 20% 30.00 in 10.0 mi SW 15.0 mph - N/A   Clear
5:51 PM 61.0 °F - 26.1 °F 26% 30.03 in 10.0 mi SW 11.5 mph - N/A   Clear
6:51 PM 54.0 °F - 25.0 °F 33% 30.04 in 10.0 mi South 10.4 mph - N/A   Clear
7:51 PM 53.1 °F - 25.0 °F 34% 30.03 in 10.0 mi SSE 9.2 mph - N/A   Clear
8:51 PM 54.0 °F - 23.0 °F 30% 30.04 in 10.0 mi SE 6.9 mph - N/A   Partly Cloudy
9:51 PM 53.1 °F - 24.1 °F 32% 30.03 in 10.0 mi ESE 9.2 mph - N/A   Mostly Cloudy
10:51 PM 55.0 °F - 26.1 °F 33% 30.02 in 10.0 mi SE 11.5 mph - N/A   Unknown
11:51 PM 55.4 °F - 28.4 °F 36% 30.17 in 10.0 mi SSW 6.9 mph - N/A   Clear